Regional Weather Roundup
Issued by NWS

Home | Current Version | Previous Version | Text Only | Print | Product List | Glossary On
Versions: 1 2 3 4 5 6 7 8 9 10 11 12 13 14 15 16 17 18 19 20 21 22 23 24 25 26 27 28 29 30 31 32 33 34 35 36 37 38 39 40 41 42 43 44 45 46 47 48 49 50
000
ASUS43 KBIS 262210
RWRND

NORTH DAKOTA REGIONAL WEATHER ROUNDUP
NATIONAL WEATHER SERVICE BISMARCK ND
400 PM CST SUN FEB 26 2017

NOTE: "FAIR" INDICATES FEW OR NO CLOUDS BELOW 12,000 FEET WITH NO
SIGNIFICANT WEATHER AND/OR OBSTRUCTIONS TO VISIBILITY.


NDZ001>003-009>011-017-262300-
NORTHWEST NORTH DAKOTA

CITY           SKY/WX    TMP DP  RH WIND       PRES   REMARKS
WILLISTON      FAIR      24  15  68 NW9       29.78R WCI  14
MINOT          FAIR      21   9  59 S10       29.77R WCI  10
MINOT AFB      SUNNY     20  11  67 SW8       29.77R WCI  11
$$

NDZ018>021-031>035-040>046-262300-
SOUTHWEST NORTH DAKOTA

CITY           SKY/WX    TMP DP  RH WIND       PRES   REMARKS
BISMARCK       MIX PCPN  22  15  75 E10       29.79R WCI  11
DICKINSON      CLOUDY    27  18  69 N15       29.70R WCI  15
GARRISON         N/A     22  13  68 CALM      29.77R
HETTINGER ARPT CLOUDY    34  21  59 W17       29.71S
$$

NDZ004>008-012>016-024-026-027-054-262300-
NORTHEAST NORTH DAKOTA

CITY           SKY/WX    TMP DP  RH WIND       PRES   REMARKS
GRAND FORKS    SUNNY     19   4  51 W9        29.86S WCI   8
GRND FRKS AFB  SUNNY     19   7  59 W8        29.86S WCI   9
DEVILS LAKE    FAIR      15   9  76 SW8       29.82R WCI   4
$$

NDZ022-023-025-028>030-036>039-047>053-262300-
SOUTHEAST NORTH DAKOTA

CITY           SKY/WX    TMP DP  RH WIND       PRES   REMARKS
FARGO          SUNNY     20   9  62 W7        29.89S WCI  11
JAMESTOWN      CLOUDY    21  12  68 W3        29.81R
$$





USA.gov is the U.S. government's official web portal to all federal, state and local government web resources and services.